GSAT-17

Last updated on Sun Jun 21 2026 00:02:55 GMT+0000 (Coordinated Universal Time)

1 42815U 17040B 26171.05407052 -.00000263 00000+0 00000+0 0 9992 2 42815 0.0164 37.4340 0001849 268.9951 74.7820 1.00270770 32812
UTC large
Height (km)
Speed (km/s)
/
Latitude / Longitude
Inclination (degrees)
Orbital Period (minutes)
Azimuth
Elevation
Range (km)
Doppler Factor

Next 0 passes for location: London (51.5072 / 0.1276)

No passes found over London.
GSAT-17